| time (UTC) | temp C | wind direction | speed KPH | gust KPH | rain 1hr cm | rain 24hr cm | rain mn cm | humidity % | barometer mb |
| 20260904164003 | 19 | 87 | 6.4 | 9.7 | 0.00 | 0.08 | 0.08 | 92 | 1014.7 |
| 20260904163504 | 19 | 63 | 3.2 | 9.7 | 0.00 | 0.08 | 0.08 | 92 | 1014.7 |
| 20260904163231 | 19 | 66 | 4.8 | 9.7 | 0.00 | 0.08 | 0.08 | 92 | 1014.7 |
| 20260904162502 | 19 | 61 | 4.8 | 8.0 | 0.00 | 0.08 | 0.08 | 93 | 1014.6 |
| 20260904162003 | 19 | 62 | 4.8 | 8.0 | 0.00 | 0.08 | 0.08 | 92 | 1014.7 |
| 20260904161503 | 19 | 90 | 4.8 | 8.0 | 0.00 | 0.08 | 0.08 | 92 | 1014.7 |
| 20260904161002 | 19 | 69 | 4.8 | 8.0 | 0.00 | 0.08 | 0.08 | 92 | 1014.8 |
| 20260904160502 | 19 | 79 | 4.8 | 8.0 | 0.00 | 0.08 | 0.08 | 92 | 1014.9 |
| 20260904160003 | 19 | 89 | 4.8 | 8.0 | 0.00 | 0.08 | 0.08 | 92 | 1014.8 |
| 20260904155502 | 19 | 66 | 4.8 | 8.0 | 0.00 | 0.08 | 0.08 | 92 | 1014.9 |
| 20260904155008 | 19 | 92 | 6.4 | 8.0 | 0.00 | 0.08 | 0.08 | 92 | 1015.1 |
| 20260904154502 | 19 | 72 | 6.4 | 11.3 | 0.00 | 0.08 | 0.08 | 92 | 1015.1 |
| 20260904154002 | 19 | 63 | 3.2 | 11.3 | 0.00 | 0.08 | 0.08 | 92 | 1015.1 |
| 20260904153501 | 19 | 48 | 6.4 | 11.3 | 0.00 | 0.08 | 0.08 | 90 | 1014.8 |
| 20260904153002 | 19 | 85 | 6.4 | 11.3 | 0.00 | 0.08 | 0.08 | 89 | 1015.2 |
| 20260904152733 | 20 | 65 | 3.2 | 6.4 | 0.00 | 0.08 | 0.08 | 89 | 1015.2 |
| 20260904152231 | 19 | 89 | 1.6 | 6.4 | 0.00 | 0.08 | 0.08 | 90 | 1015.1 |
| 20260904151502 | 19 | 148 | 1.6 | 6.4 | 0.00 | 0.08 | 0.08 | 90 | 1014.9 |
| 20260904151000 | 19 | 118 | 0.0 | 4.8 | 0.00 | 0.08 | 0.08 | 92 | 1014.9 |
| 20260904150729 | 19 | 166 | 1.6 | 3.2 | 0.00 | 0.08 | 0.08 | 92 | 1015.2 |
| 20260904150230 | 19 | 159 | 1.6 | 3.2 | 0.00 | 0.08 | 0.08 | 92 | 1015.2 |
| 20260904145500 | 19 | 257 | 0.0 | 3.2 | 0.00 | 0.08 | 0.08 | 93 | 1015.3 |
| 20260904145001 | 19 | 233 | 0.0 | 6.4 | 0.00 | 0.08 | 0.08 | 93 | 1015.2 |
| 20260904144500 | 18 | 259 | 1.6 | 6.4 | 0.00 | 0.08 | 0.08 | 94 | 1015.3 |
| 20260904144002 | 18 | 203 | 0.0 | 4.8 | 0.00 | 0.08 | 0.08 | 94 | 1015.3 |
| 20260904143601 | 18 | 204 | 3.2 | 6.4 | 0.00 | 0.08 | 0.08 | 95 | 1015.1 |
| 20260904143010 | 18 | 189 | 3.2 | 6.4 | 0.00 | 0.08 | 0.08 | 95 | 1015.1 |
| 20260904142502 | 18 | 224 | 3.2 | 6.4 | 0.00 | 0.08 | 0.08 | 96 | 1014.9 |
| 20260904141958 | 18 | 200 | 3.2 | 4.8 | 0.00 | 0.08 | 0.08 | 96 | 1014.9 |
| 20260904141515 | 18 | 204 | 1.6 | 3.2 | 0.00 | 0.08 | 0.08 | 96 | 1014.9 |
| 20260904140957 | 18 | 92 | 0.0 | 6.4 | 0.00 | 0.08 | 0.08 | 96 | 1014.8 |
| 20260904140458 | 18 | 164 | 1.6 | 6.4 | 0.00 | 0.08 | 0.08 | 96 | 1014.7 |
| 20260904135959 | 18 | 206 | 0.0 | 6.4 | 0.00 | 0.08 | 0.08 | 96 | 1014.5 |
| 20260904135454 | 18 | 186 | 1.6 | 6.4 | 0.00 | 0.08 | 0.08 | 97 | 1014.4 |
| 20260904135221 | 18 | 197 | 1.6 | 8.0 | 0.00 | 0.08 | 0.08 | 97 | 1014.6 |
| 20260904134455 | 17 | 154 | 4.8 | 8.0 | 0.00 | 0.08 | 0.08 | 97 | 1014.5 |
| 20260904134003 | 17 | 145 | 1.6 | 9.7 | 0.00 | 0.08 | 0.08 | 97 | 1014.2 |
| 20260904133455 | 17 | 151 | 3.2 | 9.7 | 0.00 | 0.08 | 0.08 | 97 | 1014.1 |
| 20260904133007 | 17 | 161 | 3.2 | 6.4 | 0.00 | 0.08 | 0.08 | 97 | 1014.1 |
| 20260904132454 | 17 | 157 | 3.2 | 6.4 | 0.00 | 0.08 | 0.08 | 97 | 1014.3 |
| 20260904131951 | 17 | 140 | 1.6 | 3.2 | 0.00 | 0.08 | 0.08 | 97 | 1014.3 |
| 20260904131714 | 17 | 92 | 0.0 | 1.6 | 0.00 | 0.08 | 0.08 | 97 | 1014.5 |
| 20260904130952 | 17 | 68 | 0.0 | 0.0 | 0.00 | 0.08 | 0.08 | 97 | 1014.5 |
| 20260904130451 | 17 | 63 | 0.0 | 4.8 | 0.00 | 0.08 | 0.08 | 97 | 1014.8 |
| 20260904125947 | 17 | 63 | 0.0 | 4.8 | 0.03 | 0.05 | 0.08 | 97 | 1014.6 |
| 20260904125447 | 17 | 66 | 3.2 | 4.8 | 0.03 | 0.05 | 0.08 | 97 | 1014.2 |
| 20260904124943 | 17 | 158 | 0.0 | 4.8 | 0.05 | 0.05 | 0.08 | 97 | 1014.1 |
| 20260904124446 | 17 | 178 | 1.6 | 4.8 | 0.08 | 0.05 | 0.08 | 97 | 1014.1 |
| 20260904123945 | 17 | 168 | 1.6 | 4.8 | 0.08 | 0.05 | 0.08 | 97 | 1014.1 |
| 20260904123443 | 17 | 178 | 0.0 | 3.2 | 0.08 | 0.05 | 0.08 | 97 | 1013.9 |
| 20260904122943 | 16 | 175 | 0.0 | 3.2 | 0.08 | 0.05 | 0.08 | 97 | 1014.0 |
| 20260904122442 | 16 | 210 | 1.6 | 3.2 | 0.08 | 0.05 | 0.08 | 97 | 1014.1 |
| 20260904122213 | 16 | 210 | 0.0 | 4.8 | 0.08 | 0.05 | 0.08 | 97 | 1014.1 |
| 20260904120942 | 16 | 188 | 3.2 | 6.4 | 0.08 | 0.05 | 0.08 | 96 | 1014.2 |
| 20260904120440 | 16 | 175 | 4.8 | 6.4 | 0.08 | 0.05 | 0.08 | 96 | 1014.4 |
| 20260904115942 | 16 | 212 | 0.0 | 4.8 | 0.05 | 0.00 | 0.05 | 96 | 1014.7 |
| 20260904115441 | 16 | 251 | 3.2 | 4.8 | 0.05 | 0.00 | 0.05 | 97 | 1014.8 |
| 20260904114941 | 16 | 264 | 3.2 | 6.4 | 0.03 | 0.00 | 0.00 | 97 | 1014.6 |
| 20260904114440 | 16 | 264 | 3.2 | 6.4 | 0.00 | 0.00 | 0.00 | 97 | 1014.7 |
| 20260904113940 | 16 | 285 | 3.2 | 6.4 | 0.00 | 0.00 | 0.00 | 97 | 1014.7 |
| 20260904113441 | 16 | 282 | 1.6 | 4.8 | 0.00 | 0.00 | 0.00 | 97 | 1014.6 |
| 20260904112941 | 15 | 310 | 1.6 | 3.2 | 0.00 | 0.00 | 0.00 | 97 | 1014.4 |
| 20260904112441 | 15 | 282 | 1.6 | 3.2 | 0.00 | 0.00 | 0.00 | 97 | 1014.2 |
| 20260904111941 | 15 | 303 | 0.0 | 3.2 | 0.00 | 0.00 | 0.00 | 97 | 1014.2 |
| 20260904111436 | 15 | 307 | 1.6 | 3.2 | 0.00 | 0.00 | 0.00 | 97 | 1014.2 |
| 20260904110936 | 15 | 302 | 1.6 | 3.2 | 0.00 | 0.00 | 0.00 | 97 | 1014.2 |
| 20260904105934 | 14 | 285 | 0.0 | 1.6 | 0.00 | 0.00 | 0.00 | 96 | 1014.1 |
| 20260904105434 | 14 | 286 | 0.0 | 1.6 | 0.00 | 0.00 | 0.00 | 96 | 1014.1 |
| 20260904104934 | 14 | 248 | 0.0 | 0.0 | 0.00 | 0.00 | 0.00 | 96 | 1013.8 |
| 20260904104435 | 14 | 248 | 0.0 | 1.6 | 0.00 | 0.00 | 0.00 | 96 | 1013.7 |
| 20260904103934 | 14 | 248 | 0.0 | 3.2 | 0.00 | 0.00 | 0.00 | 96 | 1013.8 |
| 20260904103434 | 14 | 247 | 1.6 | 3.2 | 0.00 | 0.00 | 0.00 | 96 | 1013.8 |
| 20260904102933 | 14 | 247 | 1.6 | 4.8 | 0.00 | 0.00 | 0.00 | 96 | 1013.9 |
| 20260904102433 | 14 | 250 | 1.6 | 4.8 | 0.00 | 0.00 | 0.00 | 96 | 1013.9 |
| 20260904101933 | 14 | 245 | 1.6 | 4.8 | 0.00 | 0.00 | 0.00 | 96 | 1014.1 |
| 20260904101433 | 14 | 257 | 1.6 | 4.8 | 0.00 | 0.00 | 0.00 | 96 | 1014.0 |
| 20260904101205 | 14 | 250 | 1.6 | 3.2 | 0.00 | 0.00 | 0.00 | 96 | 1013.8 |
| 20260904100432 | 14 | 257 | 1.6 | 3.2 | 0.00 | 0.00 | 0.00 | 96 | 1013.9 |
| 20260904095931 | 14 | 261 | 1.6 | 3.2 | 0.00 | 0.00 | 0.00 | 96 | 1013.9 |
| 20260904095431 | 14 | 258 | 1.6 | 3.2 | 0.00 | 0.00 | 0.00 | 96 | 1013.7 |
| 20260904094932 | 14 | 251 | 1.6 | 4.8 | 0.00 | 0.00 | 0.00 | 95 | 1013.8 |
| 20260904094430 | 14 | 262 | 3.2 | 4.8 | 0.00 | 0.00 | 0.00 | 95 | 1013.7 |
| 20260904093931 | 14 | 243 | 0.0 | 3.2 | 0.00 | 0.00 | 0.00 | 95 | 1013.4 |
| 20260904093430 | 14 | 248 | 0.0 | 3.2 | 0.00 | 0.00 | 0.00 | 95 | 1013.6 |
| 20260904093204 | 14 | 250 | 1.6 | 4.8 | 0.00 | 0.00 | 0.00 | 95 | 1013.8 |
| 20260904092431 | 14 | 267 | 1.6 | 4.8 | 0.00 | 0.00 | 0.00 | 95 | 1013.7 |
| 20260904091930 | 14 | 261 | 3.2 | 4.8 | 0.00 | 0.00 | 0.00 | 95 | 1013.7 |
| 20260904091431 | 14 | 262 | 0.0 | 3.2 | 0.00 | 0.00 | 0.00 | 95 | 1013.4 |
| 20260904090931 | 14 | 265 | 0.0 | 3.2 | 0.00 | 0.00 | 0.00 | 95 | 1013.6 |
| 20260904090430 | 14 | 262 | 1.6 | 3.2 | 0.00 | 0.00 | 0.00 | 95 | 1013.7 |
| 20260904085931 | 14 | 272 | 1.6 | 3.2 | 0.00 | 0.00 | 0.00 | 95 | 1013.5 |
| 20260904085431 | 14 | 259 | 1.6 | 3.2 | 0.00 | 0.00 | 0.00 | 95 | 1013.3 |
| 20260904084930 | 14 | 264 | 0.0 | 3.2 | 0.00 | 0.00 | 0.00 | 95 | 1013.3 |
| 20260904084433 | 14 | 264 | 1.6 | 3.2 | 0.00 | 0.00 | 0.00 | 95 | 1013.3 |
| 20260904083931 | 14 | 264 | 0.0 | 1.6 | 0.00 | 0.00 | 0.00 | 95 | 1013.3 |
| 20260904083431 | 14 | 265 | 1.6 | 3.2 | 0.00 | 0.00 | 0.00 | 95 | 1013.6 |
| 20260904082930 | 14 | 257 | 1.6 | 3.2 | 0.00 | 0.00 | 0.00 | 95 | 1013.6 |
| 20260904082657 | 14 | 259 | 1.6 | 3.2 | 0.00 | 0.00 | 0.00 | 95 | 1013.5 |
| 20260904081929 | 15 | 258 | 0.0 | 1.6 | 0.00 | 0.00 | 0.00 | 94 | 1013.4 |
| 20260904081428 | 15 | 258 | 0.0 | 1.6 | 0.00 | 0.00 | 0.00 | 94 | 1013.3 |
| 20260904081152 | 15 | 261 | 0.0 | 1.6 | 0.00 | 0.00 | 0.00 | 94 | 1013.5 |
| 20260904080428 | 15 | 262 | 1.6 | 1.6 | 0.00 | 0.00 | 0.00 | 94 | 1013.5 |
| 20260904075928 | 15 | 272 | 0.0 | 3.2 | 0.00 | 0.00 | 0.00 | 94 | 1013.7 |
| 20260904075425 | 15 | 272 | 1.6 | 3.2 | 0.00 | 0.00 | 0.00 | 94 | 1013.9 |
| 20260904074926 | 15 | 274 | 1.6 | 3.2 | 0.00 | 0.00 | 0.00 | 94 | 1014.0 |
| 20260904074424 | 15 | 251 | 1.6 | 1.6 | 0.00 | 0.00 | 0.00 | 94 | 1013.7 |
| 20260904073926 | 15 | 251 | 0.0 | 1.6 | 0.00 | 0.00 | 0.00 | 93 | 1013.4 |
| 20260904073427 | 15 | 248 | 0.0 | 1.6 | 0.00 | 0.00 | 0.00 | 93 | 1013.3 |
| 20260904072925 | 15 | 276 | 0.0 | 1.6 | 0.00 | 0.00 | 0.00 | 93 | 1013.4 |
| 20260904072421 | 15 | 276 | 1.6 | 1.6 | 0.00 | 0.00 | 0.00 | 93 | 1013.5 |
| 20260904071921 | 15 | 289 | 0.0 | 1.6 | 0.00 | 0.00 | 0.00 | 93 | 1013.3 |
| 20260904071420 | 16 | 289 | 0.0 | 1.6 | 0.00 | 0.00 | 0.00 | 93 | 1013.4 |
| 20260904070919 | 16 | 21 | 0.0 | 0.0 | 0.00 | 0.00 | 0.00 | 93 | 1013.4 |
| 20260904070420 | 16 | 25 | 0.0 | 0.0 | 0.00 | 0.00 | 0.00 | 93 | 1013.5 |
| 20260904065918 | 16 | 303 | 0.0 | 0.0 | 0.00 | 0.00 | 0.00 | 93 | 1013.5 |
| 20260904065644 | 16 | 286 | 0.0 | 1.6 | 0.00 | 0.00 | 0.00 | 93 | 1013.7 |
| 20260904065137 | 16 | 286 | 0.0 | 1.6 | 0.00 | 0.00 | 0.00 | 93 | 1013.8 |
| 20260904064413 | 16 | 48 | 0.0 | 4.8 | 0.00 | 0.00 | 0.00 | 93 | 1013.8 |
| 20260904063913 | 16 | 52 | 1.6 | 4.8 | 0.00 | 0.00 | 0.00 | 93 | 1014.0 |
| 20260904063414 | 16 | 51 | 1.6 | 4.8 | 0.00 | 0.00 | 0.00 | 93 | 1014.0 |
| 20260904063141 | 16 | 37 | 3.2 | 4.8 | 0.00 | 0.00 | 0.00 | 93 | 1014.1 |
| 20260904062413 | 16 | 1 | 1.6 | 3.2 | 0.00 | 0.00 | 0.00 | 92 | 1014.1 |
| 20260904061136 | 16 | 236 | 3.2 | 4.8 | 0.00 | 0.00 | 0.00 | 92 | 1013.8 |
| 20260904060407 | 16 | 250 | 3.2 | 4.8 | 0.00 | 0.00 | 0.00 | 92 | 1014.0 |
| 20260904055906 | 16 | 220 | 1.6 | 6.4 | 0.00 | 0.00 | 0.00 | 92 | 1014.1 |
| 20260904055407 | 16 | 237 | 1.6 | 6.4 | 0.00 | 0.00 | 0.00 | 92 | 1014.0 |
| 20260904054904 | 16 | 255 | 1.6 | 4.8 | 0.00 | 0.00 | 0.00 | 92 | 1014.2 |
| 20260904054635 | 16 | 254 | 3.2 | 4.8 | 0.00 | 0.00 | 0.00 | 92 | 1014.1 |
| 20260904053905 | 16 | 261 | 3.2 | 6.4 | 0.00 | 0.00 | 0.00 | 92 | 1014.2 |
| 20260904053406 | 16 | 262 | 3.2 | 6.4 | 0.00 | 0.00 | 0.00 | 91 | 1014.2 |
| 20260904052911 | 16 | 254 | 3.2 | 4.8 | 0.00 | 0.00 | 0.00 | 91 | 1014.1 |
| 20260904052406 | 16 | 259 | 1.6 | 4.8 | 0.00 | 0.00 | 0.00 | 91 | 1014.1 |
| 20260904051903 | 16 | 237 | 1.6 | 4.8 | 0.00 | 0.00 | 0.00 | 91 | 1014.2 |
| 20260904051403 | 16 | 271 | 3.2 | 6.4 | 0.00 | 0.00 | 0.00 | 91 | 1014.3 |
| 20260904050903 | 16 | 247 | 3.2 | 6.4 | 0.00 | 0.00 | 0.00 | 91 | 1014.2 |
| 20260904050403 | 16 | 237 | 3.2 | 6.4 | 0.00 | 0.00 | 0.00 | 90 | 1014.2 |
| 20260904045906 | 16 | 243 | 1.6 | 6.4 | 0.00 | 0.00 | 0.00 | 90 | 1014.3 |
| 20260904045404 | 17 | 248 | 3.2 | 6.4 | 0.00 | 0.00 | 0.00 | 90 | 1014.3 |
| 20260904044902 | 17 | 262 | 3.2 | 6.4 | 0.00 | 0.00 | 0.00 | 90 | 1014.3 |
| 20260904044403 | 17 | 259 | 3.2 | 4.8 | 0.00 | 0.00 | 0.00 | 90 | 1014.3 |
| 20260904043902 | 17 | 259 | 3.2 | 4.8 | 0.00 | 0.00 | 0.00 | 89 | 1014.2 |
| 20260904043640 | 17 | 259 | 3.2 | 4.8 | 0.00 | 0.00 | 0.00 | 89 | 1014.1 |
| 20260904042901 | 17 | 251 | 3.2 | 6.4 | 0.00 | 0.00 | 0.00 | 89 | 1014.1 |
| 20260904042635 | 17 | 257 | 3.2 | 6.4 | 0.00 | 0.00 | 0.00 | 89 | 1014.0 |
| 20260904042127 | 17 | 257 | 1.6 | 6.4 | 0.00 | 0.00 | 0.00 | 89 | 1014.0 |
| 20260904041405 | 17 | 251 | 3.2 | 8.0 | 0.00 | 0.00 | 0.00 | 89 | 1014.1 |
| 20260904040902 | 17 | 267 | 4.8 | 8.0 | 0.00 | 0.00 | 0.00 | 88 | 1014.1 |
| 20260904040405 | 17 | 252 | 3.2 | 6.4 | 0.00 | 0.00 | 0.00 | 88 | 1014.0 |
| 20260904040127 | 17 | 252 | 3.2 | 6.4 | 0.00 | 0.00 | 0.00 | 88 | 1014.0 |
| 20260904035402 | 17 | 255 | 3.2 | 8.0 | 0.00 | 0.00 | 0.00 | 88 | 1014.0 |
| 20260904035132 | 17 | 252 | 4.8 | 8.0 | 0.00 | 0.00 | 0.00 | 87 | 1014.1 |
| 20260904034404 | 17 | 245 | 3.2 | 8.0 | 0.00 | 0.00 | 0.00 | 87 | 1013.9 |
| 20260904033857 | 17 | 264 | 3.2 | 6.4 | 0.00 | 0.00 | 0.00 | 86 | 1014.0 |
| 20260904033355 | 17 | 250 | 4.8 | 8.0 | 0.00 | 0.00 | 0.00 | 86 | 1013.9 |
| 20260904032854 | 17 | 240 | 4.8 | 8.0 | 0.00 | 0.00 | 0.00 | 84 | 1013.9 |
| 20260904032356 | 17 | 248 | 3.2 | 6.4 | 0.00 | 0.00 | 0.00 | 83 | 1014.0 |
| 20260904032123 | 17 | 257 | 3.2 | 6.4 | 0.00 | 0.00 | 0.00 | 83 | 1014.0 |
| 20260904031626 | 17 | 240 | 3.2 | 6.4 | 0.00 | 0.00 | 0.00 | 82 | 1013.9 |
| 20260904030854 | 17 | 245 | 3.2 | 6.4 | 0.00 | 0.00 | 0.00 | 82 | 1013.9 |
| 20260904030627 | 17 | 250 | 3.2 | 8.0 | 0.00 | 0.00 | 0.00 | 81 | 1013.8 |
| 20260904025854 | 17 | 247 | 3.2 | 8.0 | 0.00 | 0.00 | 0.00 | 81 | 1013.9 |
| 20260904025619 | 17 | 244 | 3.2 | 8.0 | 0.00 | 0.00 | 0.00 | 81 | 1013.7 |
| 20260904024852 | 17 | 252 | 3.2 | 6.4 | 0.00 | 0.00 | 0.00 | 81 | 1013.9 |
| 20260904024352 | 17 | 237 | 3.2 | 6.4 | 0.00 | 0.00 | 0.00 | 81 | 1013.8 |
| 20260904023851 | 17 | 245 | 3.2 | 8.0 | 0.00 | 0.00 | 0.00 | 81 | 1014.0 |
| 20260904023349 | 17 | 240 | 4.8 | 8.0 | 0.00 | 0.00 | 0.00 | 81 | 1014.0 |
| 20260904022848 | 17 | 226 | 4.8 | 6.4 | 0.00 | 0.00 | 0.00 | 81 | 1014.0 |
| 20260904022349 | 17 | 254 | 3.2 | 6.4 | 0.00 | 0.00 | 0.00 | 81 | 1013.9 |
| 20260904021848 | 17 | 255 | 3.2 | 6.4 | 0.00 | 0.00 | 0.00 | 81 | 1013.9 |
| 20260904021348 | 17 | 250 | 3.2 | 6.4 | 0.00 | 0.00 | 0.00 | 81 | 1014.0 |
| 20260904020848 | 17 | 240 | 3.2 | 4.8 | 0.00 | 0.00 | 0.00 | 81 | 1013.8 |
| 20260904020347 | 17 | 241 | 3.2 | 6.4 | 0.00 | 0.00 | 0.00 | 81 | 1013.8 |
| 20260904015849 | 17 | 248 | 3.2 | 6.4 | 0.00 | 0.00 | 0.00 | 81 | 1013.6 |
| 20260904015345 | 17 | 250 | 3.2 | 6.4 | 0.00 | 0.00 | 0.00 | 81 | 1013.5 |
| 20260904014844 | 17 | 252 | 3.2 | 4.8 | 0.00 | 0.00 | 0.00 | 81 | 1013.5 |
| 20260904014344 | 17 | 259 | 3.2 | 4.8 | 0.00 | 0.00 | 0.00 | 82 | 1013.4 |
| 20260904013844 | 17 | 254 | 3.2 | 6.4 | 0.00 | 0.00 | 0.00 | 82 | 1013.4 |
| 20260904013343 | 17 | 252 | 3.2 | 6.4 | 0.00 | 0.00 | 0.00 | 83 | 1013.5 |
| 20260904013111 | 17 | 252 | 3.2 | 4.8 | 0.00 | 0.00 | 0.00 | 83 | 1013.5 |
| 20260904012344 | 17 | 250 | 3.2 | 4.8 | 0.00 | 0.00 | 0.00 | 83 | 1013.5 |
| 20260904011843 | 18 | 252 | 3.2 | 4.8 | 0.00 | 0.00 | 0.00 | 83 | 1013.4 |
| 20260904011344 | 18 | 248 | 1.6 | 4.8 | 0.00 | 0.00 | 0.00 | 83 | 1013.5 |
| 20260904010842 | 18 | 244 | 1.6 | 3.2 | 0.00 | 0.00 | 0.00 | 83 | 1013.4 |
| 20260904010343 | 18 | 233 | 1.6 | 3.2 | 0.00 | 0.00 | 0.00 | 82 | 1013.4 |
| 20260904005843 | 18 | 236 | 0.0 | 3.2 | 0.00 | 0.00 | 0.00 | 81 | 1013.4 |
| 20260904005343 | 18 | 238 | 1.6 | 3.2 | 0.00 | 0.00 | 0.00 | 81 | 1013.4 |
| 20260904004842 | 18 | 247 | 0.0 | 3.2 | 0.00 | 0.00 | 0.00 | 80 | 1013.3 |
| 20260904004342 | 18 | 250 | 1.6 | 3.2 | 0.00 | 0.00 | 0.00 | 80 | 1013.2 |
| 20260904003842 | 18 | 251 | 1.6 | 3.2 | 0.00 | 0.00 | 0.00 | 80 | 1013.1 |
| 20260904003343 | 19 | 250 | 1.6 | 3.2 | 0.00 | 0.00 | 0.00 | 79 | 1013.1 |
| 20260904002842 | 19 | 248 | 0.0 | 0.0 | 0.00 | 0.00 | 0.00 | 78 | 1013.1 |
| 20260904002341 | 19 | 254 | 0.0 | 0.0 | 0.00 | 0.00 | 0.00 | 77 | 1013.0 |
| 20260904001841 | 20 | 257 | 0.0 | 3.2 | 0.00 | 0.00 | 0.00 | 77 | 1013.0 |
| 20260904001342 | 20 | 257 | 1.6 | 3.2 | 0.00 | 0.00 | 0.00 | 76 | 1013.1 |
| 20260904000841 | 20 | 248 | 1.6 | 3.2 | 0.00 | 0.00 | 0.00 | 76 | 1013.1 |
| 20260903235842 | 20 | 76 | 0.0 | 1.6 | 0.00 | 0.00 | 0.00 | 75 | 1013.0 |
| 20260903235621 | 20 | 71 | 0.0 | 0.0 | 0.00 | 0.00 | 0.00 | 74 | 1012.9 |
| 20260903234844 | 20 | 69 | 0.0 | 0.0 | 0.00 | 0.00 | 0.00 | 73 | 1012.8 |
| 20260903234341 | 20 | 72 | 0.0 | 0.0 | 0.00 | 0.00 | 0.00 | 72 | 1012.7 |
| 20260903234105 | 21 | 69 | 0.0 | 0.0 | 0.00 | 0.00 | 0.00 | 72 | 1012.8 |
| 20260903233340 | 21 | 71 | 0.0 | 0.0 | 0.00 | 0.00 | 0.00 | 72 | 1012.7 |
| 20260903232841 | 21 | 71 | 0.0 | 1.6 | 0.00 | 0.00 | 0.00 | 72 | 1012.5 |
| 20260903232340 | 21 | 71 | 0.0 | 3.2 | 0.00 | 0.00 | 0.00 | 72 | 1012.4 |
| 20260903231340 | 21 | 80 | 0.0 | 6.4 | 0.00 | 0.00 | 0.00 | 73 | 1012.3 |
| 20260903230841 | 21 | 47 | 1.6 | 6.4 | 0.00 | 0.00 | 0.00 | 73 | 1012.1 |
| 20260903230340 | 21 | 66 | 0.0 | 3.2 | 0.00 | 0.00 | 0.00 | 74 | 1012.1 |
| 20260903225840 | 21 | 73 | 0.0 | 3.2 | 0.00 | 0.00 | 0.00 | 74 | 1012.1 |
| 20260903225339 | 21 | 75 | 0.0 | 3.2 | 0.00 | 0.00 | 0.00 | 73 | 1012.1 |
| 20260903224338 | 21 | 61 | 3.2 | 4.8 | 0.00 | 0.00 | 0.00 | 74 | 1011.9 |
| 20260903224108 | 21 | 63 | 1.6 | 6.4 | 0.00 | 0.00 | 0.00 | 75 | 1011.8 |
| 20260903223338 | 21 | 76 | 1.6 | 6.4 | 0.00 | 0.00 | 0.00 | 73 | 1011.9 |
| 20260903222841 | 21 | 89 | 1.6 | 4.8 | 0.00 | 0.00 | 0.00 | 73 | 1011.8 |
| 20260903222339 | 21 | 86 | 1.6 | 4.8 | 0.00 | 0.00 | 0.00 | 74 | 1011.7 |
| 20260903221838 | 21 | 68 | 3.2 | 6.4 | 0.00 | 0.00 | 0.00 | 74 | 1011.9 |
| 20260903221338 | 21 | 45 | 3.2 | 6.4 | 0.00 | 0.00 | 0.00 | 74 | 1011.8 |
| 20260903220837 | 21 | 61 | 3.2 | 8.0 | 0.00 | 0.00 | 0.00 | 76 | 1011.8 |
| 20260903215837 | 21 | 69 | 4.8 | 9.7 | 0.00 | 0.00 | 0.00 | 78 | 1011.6 |
| 20260903215338 | 21 | 69 | 6.4 | 9.7 | 0.00 | 0.00 | 0.00 | 78 | 1011.6 |
| 20260903214838 | 21 | 79 | 4.8 | 8.0 | 0.00 | 0.00 | 0.00 | 76 | 1011.7 |
| 20260903214339 | 22 | 72 | 4.8 | 8.0 | 0.00 | 0.00 | 0.00 | 73 | 1011.8 |
| 20260903214109 | 21 | 75 | 3.2 | 6.4 | 0.00 | 0.00 | 0.00 | 75 | 1011.9 |
| 20260903213336 | 22 | 76 | 3.2 | 6.4 | 0.00 | 0.00 | 0.00 | 75 | 1011.9 |
| 20260903213112 | 22 | 73 | 3.2 | 8.0 | 0.00 | 0.00 | 0.00 | 69 | 1011.9 |
| 20260903212338 | 22 | 76 | 4.8 | 8.0 | 0.00 | 0.00 | 0.00 | 67 | 1012.0 |
| 20260903211835 | 22 | 61 | 3.2 | 6.4 | 0.00 | 0.00 | 0.00 | 65 | 1012.3 |
| 20260903211335 | 22 | 66 | 4.8 | 6.4 | 0.00 | 0.00 | 0.00 | 64 | 1012.4 |
| 20260903210837 | 22 | 89 | 3.2 | 6.4 | 0.00 | 0.00 | 0.00 | 67 | 1012.4 |
| 20260903210332 | 23 | 86 | 3.2 | 6.4 | 0.00 | 0.00 | 0.00 | 66 | 1012.5 |
| 20260903205832 | 22 | 69 | 1.6 | 4.8 | 0.00 | 0.00 | 0.00 | 64 | 1012.5 |
| 20260903205334 | 22 | 59 | 1.6 | 6.4 | 0.00 | 0.00 | 0.00 | 69 | 1012.5 |
| 20260903204834 | 22 | 41 | 3.2 | 6.4 | 0.00 | 0.00 | 0.00 | 71 | 1012.5 |
| 20260903204332 | 22 | 99 | 3.2 | 6.4 | 0.00 | 0.00 | 0.00 | 68 | 1012.7 |
| 20260903203833 | 22 | 73 | 3.2 | 6.4 | 0.00 | 0.00 | 0.00 | 69 | 1012.7 |
| 20260903203333 | 22 | 72 | 1.6 | 4.8 | 0.00 | 0.00 | 0.00 | 69 | 1012.9 |
| 20260903202833 | 22 | 69 | 3.2 | 4.8 | 0.00 | 0.00 | 0.00 | 72 | 1012.9 |
| 20260903202332 | 22 | 73 | 3.2 | 6.4 | 0.00 | 0.00 | 0.00 | 75 | 1012.9 |
| 20260903201832 | 22 | 71 | 1.6 | 6.4 | 0.00 | 0.00 | 0.00 | 76 | 1013.0 |
| 20260903201334 | 22 | 55 | 1.6 | 6.4 | 0.00 | 0.00 | 0.00 | 76 | 1013.1 |
| 20260903200831 | 22 | 51 | 1.6 | 9.7 | 0.00 | 0.00 | 0.00 | 71 | 1013.2 |
| 20260903200332 | 22 | 79 | 4.8 | 9.7 | 0.00 | 0.00 | 0.00 | 72 | 1013.3 |
| 20260903195831 | 23 | 56 | 4.8 | 8.0 | 0.00 | 0.00 | 0.00 | 70 | 1013.4 |
| 20260903195329 | 22 | 85 | 3.2 | 4.8 | 0.00 | 0.00 | 0.00 | 73 | 1013.5 |
| 20260903194829 | 22 | 72 | 3.2 | 6.4 | 0.00 | 0.00 | 0.00 | 73 | 1013.5 |
| 20260903194330 | 21 | 78 | 3.2 | 6.4 | 0.00 | 0.00 | 0.00 | 76 | 1013.6 |
| 20260903193830 | 21 | 76 | 1.6 | 4.8 | 0.00 | 0.00 | 0.00 | 76 | 1013.8 |
| 20260903193329 | 22 | 58 | 1.6 | 3.2 | 0.00 | 0.00 | 0.00 | 74 | 1013.9 |
| 20260903192824 | 22 | 55 | 1.6 | 3.2 | 0.00 | 0.00 | 0.00 | 72 | 1014.1 |
| 20260903192323 | 22 | 25 | 0.0 | 3.2 | 0.00 | 0.00 | 0.00 | 71 | 1014.1 |
| 20260903191821 | 22 | 54 | 0.0 | 4.8 | 0.00 | 0.00 | 0.00 | 72 | 1014.3 |
| 20260903191547 | 22 | 4 | 0.0 | 4.8 | 0.00 | 0.00 | 0.00 | 70 | 1014.3 |
| 20260903190816 | 22 | 21 | 0.0 | 3.2 | 0.00 | 0.00 | 0.00 | 70 | 1014.4 |
| 20260903190316 | 21 | 317 | 0.0 | 3.2 | 0.00 | 0.00 | 0.00 | 72 | 1014.3 |
| 20260903185816 | 21 | 347 | 0.0 | 3.2 | 0.00 | 0.00 | 0.00 | 71 | 1014.3 |
| 20260903185314 | 21 | 21 | 0.0 | 8.0 | 0.00 | 0.00 | 0.00 | 70 | 1014.3 |
| 20260903184813 | 21 | 34 | 1.6 | 8.0 | 0.00 | 0.00 | 0.00 | 72 | 1014.3 |
| 20260903184545 | 22 | 47 | 1.6 | 3.2 | 0.00 | 0.00 | 0.00 | 71 | 1014.2 |
| 20260903183813 | 22 | 30 | 0.0 | 4.8 | 0.00 | 0.00 | 0.00 | 69 | 1014.2 |
| 20260903183315 | 22 | 38 | 1.6 | 4.8 | 0.00 | 0.00 | 0.00 | 71 | 1014.2 |
| 20260903182811 | 22 | 341 | 1.6 | 4.8 | 0.00 | 0.00 | 0.00 | 70 | 1014.2 |
| 20260903182310 | 21 | 278 | 1.6 | 4.8 | 0.00 | 0.00 | 0.00 | 76 | 1014.2 |
| 20260903181811 | 20 | 329 | 0.0 | 4.8 | 0.00 | 0.00 | 0.00 | 78 | 1014.1 |
| 20260903181312 | 20 | 52 | 0.0 | 4.8 | 0.00 | 0.00 | 0.00 | 80 | 1014.0 |
| 20260903180811 | 20 | 307 | 0.0 | 8.0 | 0.00 | 0.00 | 0.00 | 80 | 1013.8 |
| 20260903180311 | 20 | 32 | 4.8 | 8.0 | 0.00 | 0.00 | 0.00 | 81 | 1013.8 |
| 20260903180040 | 20 | 40 | 0.0 | 6.4 | 0.00 | 0.00 | 0.00 | 81 | 1013.8 |
| 20260903175312 | 20 | 30 | 3.2 | 9.7 | 0.00 | 0.00 | 0.00 | 80 | 1013.8 |
| 20260903174812 | 20 | 337 | 3.2 | 9.7 | 0.00 | 0.00 | 0.00 | 82 | 1013.6 |
| 20260903174313 | 20 | 28 | 3.2 | 9.7 | 0.00 | 0.00 | 0.00 | 84 | 1013.5 |
| 20260903173812 | 20 | 32 | 3.2 | 9.7 | 0.00 | 0.00 | 0.00 | 82 | 1013.3 |
| 20260903173311 | 20 | 355 | 3.2 | 9.7 | 0.00 | 0.00 | 0.00 | 83 | 1013.2 |
| 20260903173038 | 20 | 18 | 4.8 | 9.7 | 0.00 | 0.00 | 0.00 | 82 | 1013.3 |
| 20260903172535 | 21 | 37 | 6.4 | 9.7 | 0.00 | 0.00 | 0.00 | 80 | 1013.3 |
| 20260903171809 | 21 | 42 | 3.2 | 6.4 | 0.00 | 0.00 | 0.00 | 80 | 1013.6 |
| 20260903171309 | 20 | 63 | 1.6 | 6.4 | 0.00 | 0.00 | 0.00 | 82 | 1013.7 |
| 20260903170808 | 20 | 30 | 0.0 | 6.4 | 0.00 | 0.00 | 0.00 | 82 | 1013.6 |
| 20260903170308 | 20 | 32 | 0.0 | 9.7 | 0.00 | 0.00 | 0.00 | 84 | 1013.4 |
| 20260903165805 | 20 | 30 | 4.8 | 9.7 | 0.00 | 0.00 | 0.00 | 84 | 1013.4 |
| 20260903165306 | 20 | 327 | 3.2 | 9.7 | 0.00 | 0.00 | 0.00 | 84 | 1013.4 |
| 20260903164805 | 20 | 54 | 3.2 | 9.7 | 0.00 | 0.00 | 0.00 | 83 | 1013.5 |
| 20260903164307 | 20 | 25 | 1.6 | 9.7 | 0.00 | 0.00 | 0.00 | 84 | 1013.3 |